Location: Kumla
(59.1265°N, 15.1401°E)
Time: 01:48:10
(UTC+01:00)

Vanguard 1 - Pass Details

Date: 12 December 2023
Orbit: 653 x 3825 km, 34.3° (Epoch: 03 March)

Event Time Altitude Azimuth Distance (km) Brightness Sun altitude
Rises 15:39:03 0° 200° (SSW) 4,931 14.8 -4.4°
Reaches altitude 10° 15:43:18 10° 183° (S) 4,445 14.1 -4.8°
Maximum altitude 15:51:11 19° 145° (SE) 4,586 13.5 -5.6°
Drops below altitude 10° 16:01:42 10° 110° (ESE) 6,181 13.8 -6.7°
Sets 16:09:29 0° 96° (E) 7,657 14.1 -7.5°
